Location: Pine Creek
(45.5072°N, 110.5649°W)
Time: 17:27:28
(UTC+00:00)

Envisat - Pass Details

Date: 20 January 2022
Orbit: 764 x 765 km, 98.2° (Epoch: 19 May)

Event Time Altitude Azimuth Distance (km) Brightness Sun altitude
Rises 13:00:27 0° 7° (N) 3,241 6.2 -19.8°
Reaches altitude 10° 13:02:51 10° 1° (N) 2,311 5.4 -19.4°
Maximum altitude 13:07:38 43° 291° (WNW) 1,066 3.3 -18.6°
Drops below altitude 10° 13:12:24 10° 221° (SW) 2,296 5.2 -17.7°
Sets 13:14:47 0° 215° (SW) 3,219 6.0 -17.3°
